Вернуться в каталог

DELTA 1 DEB

LostLEO
NORAD 42093·DEBRIS·🇺🇸 United States

Запущен Dec 15, 1968 с Vandenberg Space Force Base

Loading…

Ближайшие Пролёты (ближайшие 24 часа)

TLE

УстаревшееSource: Space-Track

Эпоха: Aug 11, 2026, 05:17 UTC

1 42093U 68114V   26223.22015966  .00000856  00000-0  31096-2 0  9994
2 42093 102.5052  37.1079 0123702  71.4340 290.0145 12.95634300 48967

Отслеживайте DELTA 1 DEB в реальном времени с AllMySat

Download on the App Store